星链-5377 (STARLINK-5377 )

导读 | 星芒AI

STARLINK-5377 是 SpaceX Starlink 低轨卫星互联网项目中的一颗卫星,属于第 6 批次发射的星链卫星群。该卫星于 2023 年发射,运行在约 550 公里的近地轨道上,旨在为全球用户提供高速互联网服务。它采用先进的通信技术,支持 Ku 和 Ka 频段,具备高带宽和低延迟特性。作为星链计划的重要组成部分,STARLINK-5377 有助于扩大网络覆盖范围,特别是在偏远和网络基础设施薄弱的地区。

基本信息
目录编号:
56141
目录名称:
STARLINK-5377
国际标识:
2023-046BB
轨道中心:
EARTH
卫星名称:
星链-5377
卫星全名:
星链-5377 (STARLINK-5377 )
卫星状态:
在轨 (已飞行951 天)
发射日期:
2023-03-29 UTC
国别 :
美国 (US)
星等 :
--
轨道信息
数据来源 国际轨道数据 AOE轨道数据
星历时间 2025-11-04T20:02:10+0800
7小时前
查看轨道信息
2025-10-30T23:00:00+0800
5天前
查看轨道信息
半长轴 6937.232km 6937.236km
偏心率 0.0001247 0.0001197
轨道倾角 43.003° 43.004°
近地点辐角 268.872° 245.475°
升交点赤经 105.923° 132.424°
平近点角 91.198° 346.675°
近地点 558.231km 558.27km
远地点 559.963km 559.932km
周期 95.838分钟 95.838分钟
每日圈数 15.025312 15.0253
详细信息
固有亮度:
5
最大亮度:
2.5
卫星平台:
Starlink v1.5
覆盖范围:
全球
运营商:
太空探索技术公司
运营商所在国:
美国
制造商(研发单位):
太空探索技术公司
制造商所在国:
美国
使用方式:
暂无
卫星简介
星链(Starlink)计划是由太空探索技术公司(SpaceX)提出的一个巨型低轨卫星互联网星座项目,计划在2019年至2024年间在太空搭建由约1.2万颗卫星组成的“星链”网络,其中1584颗将部署在地球上空550千米处的近地轨道,并从2020年开始工作。该卫星仍在工作。
2D轨道图
3D轨道图
轨道高度分析图
轨道倾角分析图
轨道综合分析图
查看轨道综合分析图